Weather History for Rochester, NH

Change the Weather History Date:

Sunday, January 26, 2014

  Actual Average (KSFM) Record (KSFM)
Temperature  
Mean Temperature 16 °F -  
Max Temperature 23 °F 27 °F 50 °F (2002)
Min Temperature 10 °F 8 °F -16 °F (2009)
Degree Days  
Heating Degree Days 48    
Moisture  
Dew Point -3 °F    
Average Humidity 45    
Maximum Humidity 72    
Minimum Humidity 28    
Precipitation  
Precipitation 0.00 in - - ()
Sea Level Pressure  
Sea Level Pressure 29.64 in    
Wind  
Wind Speed 8 mph (West)    
Max Wind Speed 16 mph    
Max Gust Speed 32 mph    
Visibility 10 miles    
Events      
Averages and records for this station are not official NWS values.
T = Trace of Precipitation, MM = Missing Value Source: NWS Daily Summary

Daily Weather History Graph

Daily Weather History Graph

Search for Another Location

Airport:

Trip Planner

Search our weather history database for the weather conditions in past years. The results will help you decide how hot, cold, wet, or windy it might be!

Date:

Astronomy

Jan. 26, 2014 Rise Set
Actual Time 7:05 AM EST 4:47 PM EST
Civil Twilight 6:34 AM EST 5:18 PM EST
Nautical Twilight 6:00 AM EST 5:52 PM EST
Astronomical Twilight 5:26 AM EST 6:26 PM EST
Moon 2:39 AM EST (1/26) 12:33 PM EST (1/26)
Length of Visible Light 10h 43m
Length of Day
9h 42m
Waning Crescent, 24% of the Moon is Illuminated
Jan 26
Waning Crescent
Jan 30
New
Feb 6
First Quarter
Feb 14
Full
Feb 22
Last Quarter

Hourly Weather History & Observations

Time (EST) Temp. Windchill Dew Point Humidity Pressure Visibility Wind Dir Wind Speed Gust Speed Precip Events Conditions
12:51 AM 23.0 °F 13.9 °F 15.1 °F 72% 29.27 in 10.0 mi WSW 8.1 mph - N/A   Overcast
1:51 AM 21.9 °F 14.5 °F 14.0 °F 72% 29.29 in 10.0 mi Variable 5.8 mph - N/A   Overcast
2:51 AM 21.9 °F 13.4 °F 14.0 °F 72% 29.32 in 10.0 mi Variable 6.9 mph - N/A   Overcast
3:51 AM 21.0 °F 13.4 °F 12.0 °F 68% 29.36 in 10.0 mi Variable 5.8 mph - N/A   Clear
4:51 AM 19.0 °F 6.8 °F 3.0 °F 50% 29.41 in 10.0 mi West 11.5 mph 19.6 mph N/A   Partly Cloudy
5:51 AM 15.1 °F 4.2 °F -2.9 °F 45% 29.47 in 10.0 mi West 8.1 mph 23.0 mph N/A   Clear
6:51 AM 12.9 °F -1.6 °F -8.0 °F 39% 29.52 in 9.0 mi West 12.7 mph 25.3 mph N/A   Clear
7:51 AM 10.9 °F -5.4 °F -11.0 °F 37% 29.56 in 10.0 mi WNW 15.0 mph 24.2 mph 0.00 in   Clear
8:51 AM 10.9 °F -5.9 °F -11.0 °F 37% 29.62 in 10.0 mi WNW 16.1 mph 32.2 mph N/A   Clear
9:51 AM 12.0 °F 1.5 °F -11.9 °F 34% 29.67 in 10.0 mi Variable 6.9 mph 26.5 mph N/A   Clear
10:51 AM 12.9 °F 0.7 °F -11.9 °F 32% 29.69 in 10.0 mi WNW 9.2 mph 21.9 mph N/A   Clear
11:51 AM 16.0 °F 2.3 °F -9.9 °F 31% 29.69 in 10.0 mi West 12.7 mph 21.9 mph N/A   Clear
12:51 PM 17.1 °F 7.6 °F -11.0 °F 28% 29.71 in 10.0 mi Variable 6.9 mph 27.6 mph N/A   Clear
1:51 PM 17.1 °F 5.8 °F -9.9 °F 30% 29.71 in 10.0 mi West 9.2 mph 17.3 mph N/A   Clear
2:51 PM 17.1 °F 7.6 °F -9.0 °F 31% 29.70 in 10.0 mi Variable 6.9 mph 21.9 mph N/A   Clear
3:51 PM 17.1 °F 10.0 °F -7.1 °F 34% 29.77 in 10.0 mi SW 4.6 mph - N/A   Mostly Cloudy
4:51 PM 17.1 °F 8.7 °F -7.1 °F 34% 29.78 in 10.0 mi Variable 5.8 mph - N/A   Overcast
5:51 PM 17.1 °F - -6.0 °F 36% 29.83 in 10.0 mi Calm Calm - N/A   Overcast
6:51 PM 15.1 °F - -5.1 °F 41% 29.81 in 10.0 mi Calm Calm - N/A   Partly Cloudy
7:51 PM 12.0 °F - -5.1 °F 46% 29.85 in 10.0 mi Calm Calm - N/A   Clear
8:51 PM 15.1 °F 7.7 °F -2.9 °F 45% 29.84 in 10.0 mi South 4.6 mph - N/A   Overcast
9:51 PM 15.1 °F 7.7 °F -0.0 °F 51% 29.85 in 10.0 mi South 4.6 mph - N/A   Overcast
10:51 PM 16.0 °F 7.4 °F 1.0 °F 52% 29.85 in 10.0 mi South 5.8 mph - N/A   Overcast
11:51 PM 17.1 °F 11.7 °F 3.0 °F 54% 29.83 in 10.0 mi Variable 3.5 mph - N/A   Overcast